Hourly Weather Klecin

Today, 30 July, Friday

Time Temperature Precipitation Wind Pressure Humidity
00:00 +18°C° 0 mm 2 mps 741 mmHg 74%
01:00 +17°C° 0 mm 2 mps 741 mmHg 75%
02:00 +17°C° 0 mm 2 mps 741 mmHg 76%
03:00 +17°C° 0 mm 2 mps 741 mmHg 78%
04:00 +16°C° 0 mm 2 mps 741 mmHg 79%
05:00 +17°C° 0 mm 2 mps 741 mmHg 74%
06:00 +20°C° 0 mm 1 mps 741 mmHg 70%
07:00 +21°C° 0 mm 1 mps 741 mmHg 65%
08:00 +23°C° 0 mm 2 mps 741 mmHg 59%
09:00 +25°C° 0 mm 3 mps 741 mmHg 52%
10:00 +26°C° 0 mm 4 mps 741 mmHg 46%
11:00 +27°C° 0 mm 5 mps 741 mmHg 43%
12:00 +28°C° 0 mm 5 mps 740 mmHg 41%
13:00 +29°C° 0 mm 5 mps 740 mmHg 38%
14:00 +29°C° 0 mm 5 mps 740 mmHg 38%
15:00 +29°C° 0 mm 5 mps 739 mmHg 38%
16:00 +29°C° 0 mm 4 mps 739 mmHg 38%
17:00 +27°C° 0 mm 3 mps 739 mmHg 45%
18:00 +26°C° 0 mm 2 mps 739 mmHg 52%
19:00 +24°C° 0 mm 1 mps 739 mmHg 58%
20:00 +23°C° 0 mm 1 mps 739 mmHg 60%
21:00 +22°C° 0 mm 1 mps 739 mmHg 63%
22:00 +21°C° 0 mm 1 mps 739 mmHg 65%
23:00 +21°C° 0 mm 1 mps 739 mmHg 66%

Tomorrow, 31 July, Saturday

Time Temperature Precipitation Wind Pressure Humidity
00:00 +20°C° 0 mm 1 mps 739 mmHg 68%
01:00 +20°C° 0 mm 1 mps 738 mmHg 69%
02:00 +20°C° 0 mm 1 mps 738 mmHg 71%
03:00 +20°C° 0 mm 1 mps 738 mmHg 73%
04:00 +20°C° 0 mm 1 mps 738 mmHg 74%
05:00 +20°C° 0.2 mm 2 mps 738 mmHg 74%
06:00 +20°C° 0.2 mm 3 mps 738 mmHg 74%
07:00 +21°C° 0.2 mm 3 mps 739 mmHg 74%
08:00 +22°C° 0 mm 4 mps 739 mmHg 70%
09:00 +23°C° 0 mm 4 mps 739 mmHg 65%
10:00 +25°C° 0 mm 4 mps 739 mmHg 60%
11:00 +26°C° 0.2 mm 4 mps 739 mmHg 56%
12:00 +26°C° 0.2 mm 4 mps 739 mmHg 52%
13:00 +27°C° 0.2 mm 5 mps 739 mmHg 48%
14:00 +27°C° 0 mm 5 mps 738 mmHg 45%
15:00 +27°C° 0 mm 5 mps 738 mmHg 42%
16:00 +27°C° 0 mm 4 mps 738 mmHg 38%
17:00 +26°C° 0 mm 4 mps 738 mmHg 44%
18:00 +24°C° 0 mm 3 mps 739 mmHg 49%
19:00 +22°C° 0 mm 3 mps 739 mmHg 55%
20:00 +20°C° 0 mm 2 mps 739 mmHg 58%
21:00 +19°C° 0 mm 2 mps 739 mmHg 61%
22:00 +18°C° 0 mm 2 mps 739 mmHg 64%
23:00 +17°C° 0 mm 2 mps 739 mmHg 67%

Day after tomorrow, 1 August, Sunday

Time Temperature Precipitation Wind Pressure Humidity
00:00 +17°C° 0 mm 2 mps 740 mmHg 69%
01:00 +16°C° 0 mm 1 mps 740 mmHg 72%
02:00 +16°C° 0 mm 1 mps 739 mmHg 73%
03:00 +16°C° 0 mm 1 mps 739 mmHg 73%
04:00 +15°C° 0 mm 1 mps 739 mmHg 74%
05:00 +16°C° 0 mm 1 mps 739 mmHg 73%
06:00 +18°C° 0 mm 1 mps 739 mmHg 72%
07:00 +19°C° 0 mm 1 mps 739 mmHg 71%
08:00 +18°C° 2.6 mm 1 mps 739 mmHg 78%
09:00 +16°C° 2.6 mm 1 mps 740 mmHg 85%
10:00 +16°C° 2.6 mm 1 mps 740 mmHg 92%
11:00 +16°C° 1.3 mm 1 mps 740 mmHg 91%
12:00 +16°C° 1.3 mm 1 mps 740 mmHg 89%
13:00 +18°C° 1.3 mm 1 mps 740 mmHg 88%
14:00 +18°C° 0.1 mm 1 mps 740 mmHg 86%
15:00 +18°C° 0.1 mm 1 mps 740 mmHg 84%
16:00 +18°C° 0.1 mm 2 mps 740 mmHg 83%
17:00 +18°C° 0 mm 2 mps 739 mmHg 84%
18:00 +17°C° 0 mm 2 mps 739 mmHg 85%
19:00 +18°C° 0 mm 1 mps 739 mmHg 86%
20:00 +17°C° 0 mm 2 mps 739 mmHg 86%
21:00 +17°C° 0 mm 2 mps 739 mmHg 86%
22:00 +16°C° 0 mm 2 mps 739 mmHg 87%
23:00 +16°C° 0 mm 2 mps 739 mmHg 87%

2 August, Monday

Time Temperature Precipitation Wind Pressure Humidity
00:00 +16°C° 0 mm 2 mps 739 mmHg 88%
01:00 +16°C° 0 mm 2 mps 740 mmHg 89%
02:00 +15°C° 0 mm 2 mps 740 mmHg 89%
03:00 +15°C° 0 mm 2 mps 740 mmHg 90%
04:00 +14°C° 0 mm 2 mps 740 mmHg 90%
05:00 +16°C° 0 mm 2 mps 740 mmHg 86%
06:00 +17°C° 0 mm 2 mps 740 mmHg 82%
07:00 +18°C° 0 mm 2 mps 740 mmHg 77%
08:00 +19°C° 0.3 mm 3 mps 740 mmHg 70%
09:00 +21°C° 0.3 mm 3 mps 741 mmHg 63%
10:00 +22°C° 0.3 mm 4 mps 741 mmHg 56%
11:00 +23°C° 0.1 mm 4 mps 741 mmHg 54%
12:00 +23°C° 0.1 mm 4 mps 741 mmHg 52%
13:00 +23°C° 0.1 mm 5 mps 741 mmHg 50%
14:00 +23°C° 0.1 mm 5 mps 741 mmHg 52%
15:00 +23°C° 0.1 mm 5 mps 741 mmHg 54%
16:00 +22°C° 0.1 mm 5 mps 742 mmHg 57%
17:00 +21°C° 0.3 mm 4 mps 742 mmHg 63%
18:00 +20°C° 0.3 mm 4 mps 742 mmHg 69%
19:00 +18°C° 0.3 mm 3 mps 742 mmHg 75%
20:00 +17°C° 0 mm 3 mps 743 mmHg 78%
21:00 +16°C° 0 mm 2 mps 743 mmHg 81%
22:00 +15°C° 0 mm 2 mps 743 mmHg 83%
23:00 +15°C° 0 mm 2 mps 744 mmHg 84%

3 August, Tuesday

Time Temperature Precipitation Wind Pressure Humidity
00:00 +14°C° 0 mm 2 mps 744 mmHg 85%
01:00 +14°C° 0 mm 2 mps 744 mmHg 85%
02:00 +14°C° 0 mm 2 mps 744 mmHg 85%
03:00 +13°C° 0 mm 2 mps 744 mmHg 85%
04:00 +13°C° 0 mm 1 mps 744 mmHg 85%
05:00 +15°C° 0 mm 1 mps 744 mmHg 80%
06:00 +16°C° 0 mm 1 mps 745 mmHg 75%
07:00 +19°C° 0 mm 1 mps 745 mmHg 69%
08:00 +19°C° 0 mm 2 mps 745 mmHg 63%
09:00 +21°C° 0 mm 2 mps 745 mmHg 57%
10:00 +23°C° 0 mm 2 mps 745 mmHg 51%
11:00 +24°C° 0.1 mm 2 mps 744 mmHg 49%
12:00 +25°C° 0.1 mm 2 mps 744 mmHg 47%
13:00 +26°C° 0.1 mm 2 mps 743 mmHg 45%
14:00 +26°C° 0 mm 2 mps 743 mmHg 46%
15:00 +25°C° 0 mm 2 mps 743 mmHg 47%
16:00 +25°C° 0 mm 1 mps 743 mmHg 48%
17:00 +24°C° 0 mm 1 mps 743 mmHg 53%
18:00 +23°C° 0 mm 1 mps 742 mmHg 57%
19:00 +22°C° 0 mm 1 mps 742 mmHg 61%
20:00 +21°C° 0.3 mm 1 mps 742 mmHg 68%
21:00 +19°C° 0.3 mm 1 mps 742 mmHg 75%
22:00 +17°C° 0.3 mm 2 mps 742 mmHg 81%
23:00 +18°C° 0.2 mm 1 mps 742 mmHg 85%

4 August, Wednesday

Time Temperature Precipitation Wind Pressure Humidity
00:00 +16°C° 0.2 mm 1 mps 742 mmHg 88%
01:00 +16°C° 0.2 mm 1 mps 742 mmHg 91%
02:00 +16°C° 0.1 mm 1 mps 742 mmHg 91%
03:00 +16°C° 0.1 mm 1 mps 742 mmHg 92%
04:00 +15°C° 0.1 mm 1 mps 742 mmHg 92%
05:00 +16°C° 0.1 mm 2 mps 743 mmHg 92%
06:00 +16°C° 0.1 mm 2 mps 743 mmHg 91%
07:00 +16°C° 0.1 mm 2 mps 743 mmHg 91%
08:00 +17°C° 0.1 mm 2 mps 743 mmHg 90%
09:00 +17°C° 0.1 mm 2 mps 744 mmHg 88%
10:00 +17°C° 0.1 mm 2 mps 744 mmHg 87%
11:00 +18°C° 0.2 mm 2 mps 744 mmHg 83%
12:00 +19°C° 0.2 mm 3 mps 744 mmHg 80%
13:00 +20°C° 0.2 mm 3 mps 744 mmHg 77%
14:00 +20°C° 0.2 mm 3 mps 744 mmHg 73%
15:00 +21°C° 0.2 mm 3 mps 743 mmHg 70%
16:00 +21°C° 0.2 mm 3 mps 743 mmHg 66%
17:00 +20°C° 0.1 mm 2 mps 743 mmHg 70%
18:00 +19°C° 0.1 mm 2 mps 743 mmHg 73%
19:00 +19°C° 0.1 mm 2 mps 743 mmHg 76%
20:00 +18°C° 0 mm 2 mps 743 mmHg 77%
21:00 +18°C° 0 mm 1 mps 743 mmHg 78%
22:00 +18°C° 0 mm 1 mps 743 mmHg 79%
23:00 +16°C° 0 mm 1 mps 743 mmHg 78%
Show more